Location: Maiden
(35.5760°N, 81.2120°W)
Time: 01:48:36
(UTC-04:00)

Sich 1 - Pass Details

Date: 02 August 2020
Orbit: 595 x 624 km, 82.5° (Epoch: 11 August)

Event Time Altitude Azimuth Distance (km) Brightness Sun altitude
Exits shadow 22:40:09 79° 104° (ESE) 636 2.9 -23.3°
Maximum altitude 22:40:11 79° 95° (E) 636 2.9 -23.3°
Drops below altitude 10° 22:44:37 10° 9° (N) 1,999 6.1 -24.0°
Sets 22:46:52 0° 9° (N) 2,912 7.0 -24.3°
